Location: Darmstadt
(49.8706°N, 8.6494°E)
Time: 07:30:42
(UTC+01:00)

Meteor 2-10 Rocket - Pass Details

Date: 31 October 2020
Orbit: 734 x 885 km, 81.2° (Epoch: 03 December)

Event Time Altitude Azimuth Distance (km) Brightness Sun altitude
Rises 18:00:39 0° 168° (SSE) 3,272 6.8 -9.6°
Reaches altitude 10° 18:03:10 10° 161° (SSE) 2,325 5.9 -10.0°
Maximum altitude 18:08:00 40° 93° (E) 1,112 3.9 -10.8°
Drops below altitude 10° 18:12:43 10° 25° (NNE) 2,271 5.6 -11.6°
Sets 18:15:08 0° 18° (NNE) 3,188 6.4 -12.0°
